Weather in Whyalla

Australia     33°02′55″S   137°32′44″E
В апреле 2022 года жителям России запретили посещать сайт meteo.paraplan.net по решению Генеральной прокуратуры. Аудитория сайта уменьшилась в 10 раз. Владельцы сайта не видят смысла в поддержке погодного сервера в таких условиях. Сайт будет закрыт в октябре.
temp.,
°C
wind,
m/s
gust,
m/s
humid.,
%
clouds,
%
prec.,
mm/h
press.,
hPa
HPBL,
m
25 september, sun
sun2500:30+14se22621 0.0 101311
03:30+13ese1161100 0.0 101211
06:30+15nnw1153100 0.0 101311
09:30+17s8950100 0.0 1015356
12:30+18sse5651100 0.0 1014449
15:30+17sse566198 0.3 1012255
18:30+16sse2266100 0.0 101326
21:30+16sse2376100 0.0 101458
26 september, mon
mon2600:30+14ssw57847 0.0 1013134
03:30+13ssw57927 0.1 1013154
06:30+13s7119323 0.0 1015343
09:30+16s897693 0.0 1017852
12:30+16s997498 0.1 1016896
15:30+16s9106023 0.1 1015799
18:30+13s610590 0.0 1017310
21:30+12sw611681 0.0 1019373
27 september, tue
tue2700:30+11sw8126422 0.0 1019496
03:30+12ssw8115899 0.0 10181077
06:30+10sw6106677 0.1 1019530
09:30+14s9104995 0.1 10201778
12:30+15s10114645 0.0 10201786
15:30+14s11114621 0.0 10191655
18:30+12ssw811579 0.0 1021569
21:30+12ssw7116448 0.0 1021586
28 september, wed
wed2800:30+11s69690 0.0 1021261
03:30+11ssw686943 0.0 1021272
06:30+12s7860100 0.0 1022767
09:30+13s885670 0.0 10241334
12:30+15s88500 0.0 10231208
15:30+15s88520 0.0 10221022
18:30+13s912642 0.0 1023651
21:30+12sse810670 0.0 1026619
29 september, thu
thu2900:30+11sse69751 0.0 1026290
03:30+9se69780 0.0 1025247
06:30+9se58820 0.0 1026230
09:30+13se68610 0.0 1028695
12:30+17sse67490 0.0 10261083
15:30+17s99572 0.0 1024848
18:30+14sse912716 0.0 1026581
21:30+12sse912702 0.0 1026513